| Temperature (°F) | Max | Average | Min |
|---|---|---|---|
| Max Temperature | 105 | 91.5 | 82 |
| Avg Temperature | 101.33 | 87.8 | 80 |
| Min Temperature | 96 | 82.93 | 74 |
| Precipitation (in) | Max | Average | Min | Sum |
|---|---|---|---|---|
| Precipitation | 0 | 0 | 0 | 0 |
| Dew Point (°F) | Max | Average | Min |
|---|---|---|---|
| Dew Point | 64.5 | 55.65 | 43 |
| Wind (mph) | Max | Average | Min |
|---|---|---|---|
| Wind | 14 | 6.97 | 3 |
| Gust Wind | - | - | - |
| Sea Level Pressure (in) | Max | Average | Min |
|---|---|---|---|
| Sea Level Pressure | 29.41 | 29.29 | 29.16 |
| Date | Temp High/Low | Dew Pt High/Low | Humidity | Wind | Max Wind | Wind Gust | Pressure | Precip. | Condition |
|---|---|---|---|---|---|---|---|---|---|
| 6/1/2021 | 89 °F / 82 °F | 51 °F / 49 °F | 29 % | 7 mph | - | 29.24 in | 0 in | ||
| 6/2/2021 | 86 °F / 78 °F | 54 °F / 47 °F | 34 % | 9 mph | - | 29.35 in | 0 in | ||
| 6/3/2021 | 85 °F / 78 °F | 58 °F / 57 °F | 44 % | 7 mph | - | 29.4 in | 0 in | ||
| 6/4/2021 | 88 °F / 78 °F | 59 °F / 51 °F | 37 % | 5 mph | - | 29.41 in | 0 in | ||
| 6/5/2021 | 92 °F / 81 °F | 49 °F / 42 °F | 23 % | 10 mph | - | 29.35 in | 0 in | ||
| 6/6/2021 | 92 °F / 81 °F | 47 °F / 44 °F | 23 % | 5 mph | - | 29.34 in | 0 in | ||
| 6/7/2021 | 91 °F / 82 °F | 46 °F / 41 °F | 21 % | 12 mph | - | 29.39 in | 0 in | ||
| 6/8/2021 | 93 °F / 93 °F | 53 °F / 53 °F | 26 % | 6 mph | - | 29.3 in | 0 in | ||
| 6/9/2021 | 91 °F / 84 °F | 58 °F / 54 °F | 33 % | 8 mph | - | 29.28 in | 0 in | ||
| 6/10/2021 | 85 °F / 81 °F | 58 °F / 56 °F | 41 % | 9 mph | - | 29.23 in | 0 in | ||
| 6/11/2021 | 86 °F / 78 °F | 59 °F / 56 °F | 42 % | 7 mph | - | 29.3 in | 0 in | ||
| 6/12/2021 | 86 °F / 77 °F | 59 °F / 57 °F | 43 % | 9 mph | - | 29.33 in | 0 in | ||
| 6/13/2021 | 89 °F / 80 °F | 60 °F / 51 °F | 36 % | 10 mph | - | 29.3 in | 0 in | ||
| 6/14/2021 | 88 °F / 77 °F | 61 °F / 51 °F | 44 % | 8 mph | - | 29.24 in | 0 in | ||
| 6/15/2021 | 85 °F / 79 °F | 58 °F / 57 °F | 43 % | 7 mph | - | 29.29 in | 0 in | ||
| 6/16/2021 | 82 °F / 78 °F | 59 °F / 55 °F | 43 % | 14 mph | - | 29.27 in | 0 in | ||
| 6/17/2021 | 89 °F / 77 °F | 59 °F / 51 °F | 38 % | 6 mph | - | 29.41 in | 0 in | ||
| 6/18/2021 | 93 °F / 83 °F | 59 °F / 48 °F | 28 % | 7 mph | - | 29.34 in | 0 in | ||
| 6/19/2021 | 91 °F / 85 °F | 54 °F / 52 °F | 30 % | 3 mph | - | 29.27 in | 0 in | ||
| 6/20/2021 | 93 °F / 81 °F | 63 °F / 58 °F | 41 % | 5 mph | - | 29.24 in | 0 in | ||
| 6/21/2021 | 88 °F / 74 °F | 65 °F / 60 °F | 58 % | 7 mph | - | 29.28 in | 0 in | ||
| 6/22/2021 | 87 °F / 79 °F | 66 °F / 61 °F | 50 % | 3 mph | - | 29.31 in | 0 in | ||
| 6/23/2021 | 88 °F / 78 °F | 65 °F / 64 °F | 54 % | 5 mph | - | 29.33 in | 0 in | ||
| 6/24/2021 | 96 °F / 86 °F | 62 °F / 58 °F | 34 % | 3 mph | - | 29.27 in | 0 in | ||
| 6/25/2021 | 97 °F / 87 °F | 64 °F / 59 °F | 35 % | 6 mph | - | 29.22 in | 0 in | ||
| 6/26/2021 | 101 °F / 91 °F | 57 °F / 53 °F | 25 % | 6 mph | - | 29.16 in | 0 in | ||
| 6/27/2021 | 100 °F / 94 °F | 66 °F / 58 °F | 29 % | 6 mph | - | 29.17 in | 0 in | ||
| 6/28/2021 | 104 °F / 94 °F | 60 °F / 55 °F | 24 % | 6 mph | - | 29.2 in | 0 in | ||
| 6/29/2021 | 105 °F / 96 °F | 56 °F / 51 °F | 21 % | 6 mph | - | 29.19 in | 0 in | ||
| 6/30/2021 | 105 °F / 96 °F | 62 °F / 56 °F | 24 % | 7 mph | - | 29.21 in | 0 in |